Somerville, NJ

11:05 AM EDT on August 17, 2017 (GMT -0400)
Somerset

Weather History for KSMQ - June, 2012

Change the Weather History Date:

Friday, June 22, 2012

  Actual Average Record
Temperature  
Mean Temperature 79 °F -  
Max Temperature 89 °F 81 °F 94 °F (1941)
Min Temperature 69 °F 58 °F 42 °F (1963)
Cooling Degree Days 14    
Growing Degree Days 29 (Base 50)    
Moisture  
Dew Point 70 °F    
Average Humidity 89    
Maximum Humidity 100    
Minimum Humidity 55    
Precipitation  
Precipitation 0.00 in - - ()
Sea Level Pressure  
Sea Level Pressure 29.78 in    
Wind  
Wind Speed 0 mph (North)    
Max Wind Speed 5 mph    
Max Gust Speed -    
Visibility 3 miles    
Events      
Averages and records for this station are not official NWS values.
T = Trace of Precipitation, MM = Missing Value Source: NWS Daily Summary

Daily Weather History Graph

Daily Weather History Graph

Search for Another Location

Airport or City:

Trip Planner

Search our weather history database for the weather conditions in past years. The results will help you decide how hot, cold, wet, or windy it might be!

Date:

Astronomy

Jun. 22, 2012 Rise Set
Actual Time 5:28 AM EDT 8:33 PM EDT
Civil Twilight 4:54 AM EDT 9:06 PM EDT
Nautical Twilight 4:12 AM EDT 9:49 PM EDT
Astronomical Twilight 3:22 AM EDT 10:39 PM EDT
Moon 8:25 AM EDT (6/22) 10:27 PM EDT (6/22)
Length of Visible Light 16h 11m
Length of Day
15h 05m
Waxing Crescent, 9% of the Moon is Illuminated
Jun 22
Waxing Crescent
Jun 26
First Quarter
Jul 3
Full
Jul 10
Last Quarter
Jul 19
New

Hourly Weather History & Observations

Time (EDT) Temp. Heat Index Dew Point Humidity Pressure Visibility Wind Dir Wind Speed Gust Speed Precip Events Conditions
12:53 AM 73.9 °F - 71.1 °F 91% 29.79 in 5.0 mi Calm Calm - N/A   Clear
1:41 AM 71.6 °F - 69.8 °F 94% 29.79 in 2.5 mi Calm Calm - N/A   Clear
1:53 AM 72.0 °F - 70.0 °F 93% 29.78 in 3.0 mi Calm Calm - N/A   Clear
2:22 AM 71.6 °F - 69.8 °F 94% 29.79 in 2.5 mi Calm Calm - N/A   Clear
2:53 AM 71.6 °F - 69.8 °F 94% 29.79 in 2.0 mi Calm Calm - N/A   Clear
3:13 AM 71.6 °F - 69.8 °F 94% 29.78 in 4.0 mi Calm Calm - N/A   Clear
3:43 AM 71.6 °F - 69.8 °F 94% 29.78 in 1.8 mi Calm Calm - N/A   Clear
3:53 AM 71.1 °F - 69.1 °F 93% 29.77 in 0.8 mi Calm Calm - N/A   Mist
4:06 AM 69.8 °F - 69.8 °F 100% 29.77 in 1.2 mi Calm Calm - N/A   Partly Cloudy
4:13 AM 71.6 °F - 69.8 °F 94% 29.77 in 3.0 mi Calm Calm - N/A   Partly Cloudy
4:25 AM 69.8 °F - 69.8 °F 100% 29.77 in 1.8 mi Calm Calm - N/A   Clear
4:53 AM 70.0 °F - 69.1 °F 97% 29.77 in 1.8 mi Calm Calm - N/A   Clear
5:02 AM 69.8 °F - 69.8 °F 100% 29.77 in 2.0 mi Calm Calm - N/A   Clear
5:10 AM 69.8 °F - 69.8 °F 100% 29.77 in 1.5 mi Calm Calm - N/A   Clear
5:25 AM 69.8 °F - 69.8 °F 100% 29.78 in 3.0 mi Calm Calm - N/A   Clear
5:48 AM 69.8 °F - 69.8 °F 100% 29.78 in 1.8 mi Calm Calm - N/A   Clear
5:49 AM 70.0 °F - 69.1 °F 97% 29.77 in 1.8 mi Calm Calm - N/A   Clear
6:53 AM 73.0 °F - 71.1 °F 93% 29.78 in 2.0 mi Calm Calm - N/A   Mostly Cloudy
7:21 AM 75.2 °F - 71.6 °F 89% 29.78 in 4.0 mi Calm Calm - N/A   Clear
7:53 AM 79.0 °F - 73.0 °F 82% 29.78 in 5.0 mi Calm Calm - N/A   Haze
8:53 AM 82.9 °F 88.0 °F 72.0 °F 69% 29.78 in 5.0 mi Calm Calm - N/A   Haze
9:53 AM 87.1 °F 92.0 °F 70.0 °F 57% 29.78 in 6.0 mi Calm Calm - N/A   Haze
10:53 AM 89.1 °F 95.0 °F 71.1 °F 55% 29.77 in 6.0 mi Calm Calm - N/A   Haze
11:53 AM 88.0 °F 93.8 °F 71.1 °F 57% 29.78 in 6.0 mi Variable 4.6 mph - N/A   Haze